Terminal Aerodrome Forecast
Issued by NWS Milwaukee/Sullivan, WI

Home | Current Version | Previous Version | Text Only | Print | Product List | Glossary On
Versions: 1 2 3 4 5 6 7 8 9 10 11 12 13 14 15 16 17 18 19 20 21 22 23 24 25 26 27 28 29 30 31 32 33 34 35 36 37 38 39 40 41 42 43 44 45 46 47 48 49 50
000
FTUS43 KMKX 221725
TAFMKE
TAF
KMKE 221725Z 2218/2324 31004KT P6SM FEW008 BKN016 OVC021
     FM221900 01004KT P6SM OVC020
     FM222300 36004KT 5SM BR BKN010
     FM230500 34004KT 4SM BR BKN008
     FM231400 34008KT 6SM BR OVC010
     FM231800 35008KT P6SM OVC015
     FM232000 34007KT P6SM BKN020=

USA.gov is the U.S. government's official web portal to all federal, state and local government web resources and services.